Retour au catalogue

BEIDOU 3M18

ActifNavigationMEO
NORAD 43707·PAYLOAD·🇨🇳 China

Lancé Nov 18, 2018 depuis Xichang Satellite Launch Center

Loading…

Prochains Passages (prochaines 24 heures)

TLE

FraisSource: CelesTrak SupGP

Époque: Sep 12, 2026, 00:00 UTC

1 43707C 18093B   26255.00000000  .00000000  00000+0  00000+0 0  2555
2 43707  54.1669 179.3457 0007448 339.7571 271.8335  1.86226776    13

Suivez BEIDOU 3M18 en temps réel avec AllMySat

Download on the App Store